N420UT KPIE-MPMG

Flight info

Callsign N420UT
Flight time 3h 20m
Altitude 41000
Route SABEE DCT MCLAW Y442 FUNDI UM335 ARNAL DCT SEKMA
Aircraft HDJT/L-SBDGRWYZ/LB2

Departure

Time 2026-05-07 19:51
Airport St. Petersburg Clearwater International Airport (KPIE)

Arrival

Time 2026-05-07 23:12
Airport Marcos A. Gelabert International Airport (MPMG)
Time Latitude Longitude Altitude Speed Heading
2026-05-07 19:25 27.90486 -82.69002 19 ft 0 kts 173°
2026-05-07 19:45 27.90468 -82.68999 19 ft 7 kts 168°
2026-05-07 19:45 27.90461 -82.68940 19 ft 12 kts 63°
2026-05-07 19:46 27.90541 -82.68916 19 ft 16 kts 351°
2026-05-07 19:46 27.90666 -82.68937 18 ft 20 kts 351°
2026-05-07 19:46 27.90820 -82.68964 19 ft 24 kts 351°
2026-05-07 19:46 27.90992 -82.68994 18 ft 25 kts 351°
2026-05-07 19:47 27.91167 -82.69024 18 ft 26 kts 351°
2026-05-07 19:47 27.91343 -82.69055 18 ft 26 kts 351°
2026-05-07 19:47 27.91520 -82.69086 18 ft 26 kts 351°
2026-05-07 19:47 27.91698 -82.69117 18 ft 26 kts 351°
2026-05-07 19:48 27.91876 -82.69148 18 ft 26 kts 351°
2026-05-07 19:48 27.92056 -82.69180 18 ft 26 kts 351°
2026-05-07 19:48 27.92230 -82.69210 18 ft 25 kts 351°
2026-05-07 19:48 27.92314 -82.69177 18 ft 0 kts 60°
2026-05-07 19:49 27.92324 -82.69152 17 ft 9 kts 72°
2026-05-07 19:50 27.92329 -82.69071 16 ft 8 kts 152°
2026-05-07 19:50 27.92312 -82.69066 17 ft 0 kts 171°
2026-05-07 19:51 27.92055 -82.69020 17 ft 71 kts 171°
2026-05-07 19:51 27.91327 -82.68898 88 ft 129 kts 179°
2026-05-07 19:51 27.90443 -82.68703 673 ft 130 kts 176°
2026-05-07 19:51 27.89486 -82.68438 1067 ft 155 kts 173°
2026-05-07 19:52 27.88360 -82.68127 1568 ft 176 kts 171°
2026-05-07 19:52 27.87096 -82.67820 2039 ft 197 kts 173°
2026-05-07 19:52 27.85712 -82.67463 2627 ft 207 kts 169°
2026-05-07 19:52 27.84231 -82.67149 3108 ft 222 kts 180°
2026-05-07 19:53 27.82727 -82.67424 3775 ft 220 kts 201°
2026-05-07 19:53 27.81274 -82.68014 4451 ft 224 kts 204°
2026-05-07 19:53 27.79804 -82.68638 5134 ft 229 kts 203°
2026-05-07 19:53 27.78305 -82.69280 5823 ft 231 kts 204°
2026-05-07 19:54 27.76793 -82.69935 6541 ft 234 kts 204°
2026-05-07 19:54 27.75235 -82.70483 7283 ft 235 kts 198°
2026-05-07 19:54 27.73648 -82.70922 8067 ft 235 kts 197°
2026-05-07 19:54 27.72052 -82.71349 8820 ft 237 kts 194°
2026-05-07 19:55 27.70403 -82.71248 9616 ft 245 kts 163°
2026-05-07 19:55 27.68964 -82.70179 10330 ft 254 kts 139°
2026-05-07 19:55 27.67698 -82.68758 10989 ft 258 kts 141°
2026-05-07 19:55 27.66315 -82.67472 11677 ft 259 kts 147°
2026-05-07 19:56 27.64836 -82.66293 12352 ft 262 kts 148°
2026-05-07 19:56 27.63349 -82.65070 13046 ft 267 kts 147°
2026-05-07 19:56 27.61865 -82.63796 13757 ft 270 kts 146°
2026-05-07 19:56 27.60356 -82.62510 14384 ft 274 kts 147°
2026-05-07 19:57 27.58818 -82.61214 14996 ft 278 kts 147°
2026-05-07 19:57 27.57259 -82.59898 15611 ft 283 kts 147°
2026-05-07 19:57 27.55675 -82.58559 16247 ft 286 kts 147°
2026-05-07 19:57 27.54068 -82.57200 16874 ft 291 kts 147°
2026-05-07 19:58 27.52433 -82.55820 17501 ft 296 kts 147°
2026-05-07 19:58 27.50772 -82.54419 18142 ft 301 kts 147°
2026-05-07 19:58 27.49087 -82.52996 18718 ft 305 kts 147°
2026-05-07 19:58 27.47381 -82.51556 19299 ft 308 kts 147°
2026-05-07 19:59 27.45659 -82.50104 19888 ft 311 kts 148°
2026-05-07 19:59 27.43921 -82.48640 20477 ft 314 kts 148°
2026-05-07 19:59 27.42167 -82.47163 21070 ft 316 kts 148°
2026-05-07 19:59 27.40396 -82.45671 21676 ft 319 kts 148°
2026-05-07 20:00 27.38610 -82.44168 22276 ft 323 kts 148°
2026-05-07 20:00 27.36801 -82.42646 22878 ft 326 kts 149°
2026-05-07 20:00 27.34976 -82.41111 23501 ft 329 kts 149°
2026-05-07 20:00 27.33132 -82.39560 24034 ft 333 kts 149°
2026-05-07 20:01 27.31269 -82.37995 24549 ft 335 kts 149°
2026-05-07 20:01 27.29393 -82.36418 25060 ft 338 kts 149°
2026-05-07 20:01 27.27496 -82.34826 25568 ft 342 kts 149°
2026-05-07 20:01 27.25585 -82.33222 26067 ft 344 kts 149°
2026-05-07 20:02 27.23658 -82.31605 26581 ft 347 kts 149°
2026-05-07 20:02 27.21714 -82.29975 27073 ft 350 kts 149°
2026-05-07 20:02 27.19750 -82.28330 27549 ft 354 kts 149°
2026-05-07 20:02 27.17770 -82.26670 28020 ft 357 kts 149°
2026-05-07 20:03 27.15773 -82.24998 28479 ft 360 kts 149°
2026-05-07 20:03 27.13759 -82.23313 28927 ft 363 kts 149°
2026-05-07 20:03 27.11727 -82.21612 29364 ft 366 kts 149°
2026-05-07 20:03 27.09678 -82.19908 29793 ft 367 kts 151°
2026-05-07 20:04 27.07474 -82.18503 30197 ft 362 kts 163°
2026-05-07 20:04 27.05146 -82.17426 30534 ft 363 kts 164°
2026-05-07 20:04 27.02850 -82.16339 30966 ft 363 kts 163°
2026-05-07 20:04 27.00533 -82.15218 31389 ft 362 kts 163°
2026-05-07 20:05 26.98215 -82.14111 31812 ft 361 kts 164°
2026-05-07 20:05 26.95900 -82.13018 32230 ft 361 kts 164°
2026-05-07 20:05 26.93590 -82.11923 32621 ft 361 kts 163°
2026-05-07 20:05 26.91281 -82.10823 33017 ft 360 kts 163°
2026-05-07 20:06 26.88975 -82.09727 33416 ft 360 kts 163°
2026-05-07 20:06 26.86672 -82.08635 33811 ft 359 kts 163°
2026-05-07 20:06 26.84371 -82.07544 34176 ft 359 kts 163°
2026-05-07 20:06 26.82075 -82.06455 34499 ft 359 kts 163°
2026-05-07 20:07 26.79779 -82.05367 34825 ft 358 kts 163°
2026-05-07 20:07 26.77484 -82.04280 35140 ft 358 kts 163°
2026-05-07 20:07 26.75194 -82.03195 35458 ft 357 kts 163°
2026-05-07 20:07 26.72904 -82.02111 35770 ft 357 kts 163°
2026-05-07 20:08 26.70617 -82.01029 36055 ft 357 kts 163°
2026-05-07 20:08 26.68333 -81.99949 36360 ft 356 kts 163°
2026-05-07 20:08 26.66051 -81.98870 36659 ft 356 kts 163°
2026-05-07 20:08 26.63790 -81.97802 36933 ft 356 kts 162°
2026-05-07 20:09 26.61513 -81.96726 37229 ft 355 kts 162°
2026-05-07 20:09 26.59241 -81.95654 37525 ft 355 kts 162°
2026-05-07 20:09 26.56999 -81.94596 37813 ft 354 kts 162°
2026-05-07 20:10 26.52467 -81.92459 38380 ft 353 kts 162°
2026-05-07 20:10 26.50202 -81.91391 38658 ft 353 kts 162°
2026-05-07 20:10 26.47939 -81.90325 38900 ft 353 kts 162°
2026-05-07 20:10 26.45679 -81.89261 39129 ft 352 kts 162°
2026-05-07 20:11 26.43424 -81.88199 39366 ft 352 kts 162°
2026-05-07 20:11 26.41173 -81.87141 39594 ft 351 kts 162°
2026-05-07 20:11 26.38925 -81.86083 39813 ft 350 kts 162°
2026-05-07 20:11 26.36679 -81.85028 40030 ft 350 kts 162°
2026-05-07 20:12 26.34436 -81.83974 40256 ft 349 kts 162°
2026-05-07 20:12 26.32198 -81.82923 40452 ft 349 kts 162°
2026-05-07 20:12 26.29962 -81.81873 40670 ft 348 kts 162°
2026-05-07 20:12 26.27732 -81.80826 40876 ft 348 kts 162°
2026-05-07 20:13 26.25502 -81.79781 41038 ft 349 kts 162°
2026-05-07 20:13 26.20946 -81.77648 41039 ft 361 kts 162°
2026-05-07 20:14 26.16244 -81.75444 41040 ft 372 kts 162°
2026-05-07 20:14 26.11430 -81.73190 41041 ft 376 kts 162°
2026-05-07 20:15 26.06613 -81.70937 41041 ft 375 kts 162°
2026-05-07 20:15 26.01794 -81.68686 41033 ft 376 kts 162°
2026-05-07 20:16 25.96977 -81.66438 41036 ft 375 kts 162°
2026-05-07 20:16 25.92166 -81.64195 41040 ft 375 kts 162°
2026-05-07 20:17 25.87353 -81.61952 41042 ft 375 kts 162°
2026-05-07 20:17 25.82570 -81.59726 41046 ft 375 kts 162°
2026-05-07 20:18 25.77758 -81.57488 41044 ft 375 kts 162°
2026-05-07 20:18 25.72945 -81.55252 41048 ft 375 kts 162°
2026-05-07 20:19 25.68133 -81.53018 41053 ft 375 kts 161°
2026-05-07 20:19 25.63329 -81.50790 41047 ft 374 kts 161°
2026-05-07 20:20 25.58525 -81.48564 41045 ft 374 kts 162°
2026-05-07 20:20 25.53726 -81.46341 41045 ft 374 kts 162°
2026-05-07 20:21 25.48921 -81.44118 41043 ft 374 kts 162°
2026-05-07 20:21 25.44119 -81.41899 41043 ft 374 kts 162°
2026-05-07 20:22 25.39315 -81.39680 41037 ft 374 kts 162°
2026-05-07 20:22 25.34520 -81.37467 41036 ft 373 kts 161°
2026-05-07 20:23 25.29732 -81.35260 41032 ft 373 kts 161°
2026-05-07 20:23 25.24946 -81.33056 41026 ft 373 kts 161°
2026-05-07 20:24 25.20156 -81.30851 41031 ft 373 kts 161°
2026-05-07 20:24 25.15367 -81.28649 41030 ft 373 kts 161°
2026-05-07 20:25 25.10575 -81.26448 41024 ft 373 kts 162°
2026-05-07 20:25 25.05785 -81.24248 41025 ft 373 kts 161°
2026-05-07 20:26 25.01001 -81.22054 41025 ft 372 kts 161°
2026-05-07 20:26 24.96223 -81.19864 41026 ft 372 kts 161°
2026-05-07 20:27 24.91475 -81.17690 41029 ft 372 kts 161°
2026-05-07 20:27 24.86665 -81.15490 41032 ft 372 kts 161°
2026-05-07 20:28 24.81917 -81.13319 41031 ft 372 kts 161°
2026-05-07 20:28 24.77133 -81.11134 41030 ft 372 kts 161°
2026-05-07 20:29 24.72354 -81.08953 41029 ft 372 kts 161°
2026-05-07 20:29 24.67579 -81.06776 41029 ft 371 kts 161°
2026-05-07 20:30 24.63577 -81.04952 41028 ft 371 kts 161°
2026-05-07 20:30 24.58800 -81.02778 41037 ft 371 kts 162°
2026-05-07 20:30 24.56359 -81.01923 41048 ft 366 kts 173°
2026-05-07 20:31 24.53852 -81.01628 41052 ft 360 kts 185°
2026-05-07 20:31 24.48835 -81.01615 41041 ft 361 kts 184°
2026-05-07 20:32 24.43849 -81.01557 41040 ft 361 kts 184°
2026-05-07 20:32 24.38833 -81.01522 41042 ft 361 kts 184°
2026-05-07 20:33 24.33814 -81.01477 41041 ft 361 kts 184°
2026-05-07 20:33 24.28797 -81.01436 41041 ft 361 kts 184°
2026-05-07 20:34 24.23776 -81.01393 41038 ft 361 kts 184°
2026-05-07 20:34 24.18756 -81.01352 41038 ft 361 kts 184°
2026-05-07 20:35 24.13738 -81.01310 41036 ft 361 kts 184°
2026-05-07 20:35 24.08717 -81.01267 41022 ft 361 kts 184°
2026-05-07 20:36 24.03696 -81.01226 41023 ft 361 kts 184°
2026-05-07 20:36 23.98675 -81.01137 41018 ft 362 kts 181°
2026-05-07 20:37 23.93645 -81.00925 41018 ft 362 kts 182°
2026-05-07 20:37 23.88616 -81.00713 41018 ft 362 kts 182°
2026-05-07 20:38 23.83586 -81.00500 41017 ft 362 kts 182°
2026-05-07 20:38 23.78556 -81.00287 41009 ft 362 kts 182°
2026-05-07 20:39 23.73518 -81.00075 41010 ft 362 kts 182°
2026-05-07 20:39 23.68478 -80.99862 41010 ft 362 kts 182°
2026-05-07 20:40 23.63438 -80.99650 41009 ft 362 kts 182°
2026-05-07 20:40 23.58401 -80.99438 41004 ft 362 kts 182°
2026-05-07 20:41 23.53362 -80.99225 41004 ft 362 kts 182°
2026-05-07 20:41 23.48325 -80.99013 40993 ft 362 kts 181°
2026-05-07 20:42 23.43274 -80.98802 41001 ft 364 kts 181°
2026-05-07 20:42 23.38252 -80.98590 41001 ft 363 kts 181°
2026-05-07 20:43 23.33200 -80.98378 40998 ft 363 kts 181°
2026-05-07 20:43 23.28147 -80.98166 40998 ft 363 kts 181°
2026-05-07 20:44 23.23096 -80.97954 40993 ft 363 kts 181°
2026-05-07 20:44 23.18043 -80.97740 40993 ft 363 kts 181°
2026-05-07 20:45 23.12985 -80.97527 40993 ft 365 kts 181°
2026-05-07 20:45 23.07917 -80.97314 40987 ft 364 kts 181°
2026-05-07 20:46 23.02847 -80.97092 40987 ft 365 kts 181°
2026-05-07 20:46 22.97780 -80.96886 40987 ft 364 kts 181°
2026-05-07 20:47 22.92711 -80.96691 40985 ft 364 kts 181°
2026-05-07 20:47 22.87641 -80.96491 40984 ft 365 kts 181°
2026-05-07 20:48 22.82572 -80.96292 40983 ft 365 kts 181°
2026-05-07 20:48 22.77488 -80.96093 40982 ft 366 kts 181°
2026-05-07 20:49 22.72404 -80.95894 40982 ft 365 kts 181°
2026-05-07 20:49 22.67324 -80.95694 40979 ft 365 kts 181°
2026-05-07 20:50 22.62240 -80.95496 40979 ft 365 kts 181°
2026-05-07 20:50 22.57156 -80.95297 40979 ft 365 kts 181°
2026-05-07 20:51 22.52075 -80.95099 40972 ft 365 kts 181°
2026-05-07 20:51 22.46981 -80.94900 40976 ft 367 kts 181°
2026-05-07 20:52 22.41885 -80.94701 40987 ft 366 kts 181°
2026-05-07 20:52 22.36787 -80.94502 40987 ft 366 kts 181°
2026-05-07 20:53 22.31692 -80.94304 40990 ft 366 kts 181°
2026-05-07 20:53 22.26630 -80.94107 40990 ft 366 kts 181°
2026-05-07 20:54 22.21534 -80.93909 40987 ft 366 kts 181°
2026-05-07 20:54 22.16433 -80.93710 40987 ft 368 kts 180°
2026-05-07 20:55 22.11317 -80.93512 40987 ft 368 kts 180°
2026-05-07 20:55 22.06205 -80.93313 40993 ft 368 kts 180°
2026-05-07 20:56 22.01089 -80.93115 40993 ft 368 kts 180°
2026-05-07 20:56 21.95976 -80.92917 40993 ft 368 kts 180°
2026-05-07 20:57 21.90865 -80.92719 40995 ft 368 kts 180°
2026-05-07 20:57 21.85751 -80.92521 40992 ft 368 kts 180°
2026-05-07 20:58 21.80624 -80.92323 40992 ft 369 kts 180°
2026-05-07 20:58 21.75495 -80.92125 40992 ft 369 kts 180°
2026-05-07 20:59 21.70366 -80.91927 40992 ft 369 kts 180°
2026-05-07 20:59 21.65239 -80.91729 40992 ft 369 kts 180°
2026-05-07 21:00 21.60110 -80.91531 40997 ft 369 kts 180°
2026-05-07 21:00 21.54980 -80.91333 41000 ft 369 kts 180°
2026-05-07 21:01 21.49841 -80.91136 40997 ft 370 kts 180°
2026-05-07 21:01 21.44697 -80.90935 41002 ft 370 kts 180°
2026-05-07 21:02 21.39547 -80.90737 41003 ft 371 kts 180°
2026-05-07 21:02 21.34392 -80.90536 41002 ft 371 kts 180°
2026-05-07 21:03 21.29237 -80.90337 41002 ft 371 kts 180°
2026-05-07 21:03 21.24085 -80.90137 41002 ft 371 kts 180°
2026-05-07 21:04 21.18930 -80.89938 41003 ft 371 kts 180°
2026-05-07 21:04 21.13777 -80.89739 41002 ft 371 kts 180°
2026-05-07 21:05 21.08622 -80.89540 41002 ft 371 kts 180°
2026-05-07 21:05 21.03505 -80.89331 41003 ft 371 kts 179°
2026-05-07 21:06 20.98350 -80.89096 41002 ft 371 kts 180°
2026-05-07 21:06 20.93192 -80.88873 41002 ft 371 kts 180°
2026-05-07 21:07 20.88037 -80.88645 40998 ft 371 kts 179°
2026-05-07 21:07 20.82872 -80.88419 40998 ft 372 kts 179°
2026-05-07 21:08 20.77708 -80.88193 40997 ft 371 kts 179°
2026-05-07 21:08 20.72541 -80.87966 40997 ft 372 kts 179°
2026-05-07 21:09 20.67376 -80.87740 40996 ft 372 kts 179°
2026-05-07 21:09 20.62209 -80.87514 40998 ft 371 kts 179°
2026-05-07 21:10 20.57044 -80.87289 41000 ft 372 kts 179°
2026-05-07 21:10 20.51871 -80.87062 40998 ft 373 kts 179°
2026-05-07 21:11 20.46687 -80.86836 40996 ft 373 kts 179°
2026-05-07 21:11 20.38916 -80.86497 40995 ft 373 kts 179°
2026-05-07 21:12 20.33734 -80.86271 40994 ft 373 kts 179°
2026-05-07 21:12 20.28590 -80.86047 40992 ft 373 kts 179°
2026-05-07 21:13 20.23407 -80.85822 40990 ft 373 kts 179°
2026-05-07 21:13 20.18219 -80.85597 40990 ft 374 kts 179°
2026-05-07 21:14 20.13025 -80.85371 40992 ft 374 kts 179°
2026-05-07 21:14 20.07830 -80.85145 40990 ft 374 kts 179°
2026-05-07 21:15 20.02636 -80.84920 40991 ft 374 kts 179°
2026-05-07 21:15 19.97439 -80.84688 40989 ft 374 kts 179°
2026-05-07 21:16 19.92241 -80.84429 40990 ft 374 kts 179°
2026-05-07 21:16 19.87045 -80.84182 40992 ft 374 kts 179°
2026-05-07 21:17 19.82719 -80.83972 40985 ft 374 kts 179°
2026-05-07 21:17 19.77516 -80.83722 40984 ft 374 kts 179°
2026-05-07 21:18 19.71467 -80.83431 40989 ft 374 kts 179°
2026-05-07 21:18 19.67106 -80.83222 40987 ft 374 kts 179°
2026-05-07 21:19 19.61904 -80.82973 40986 ft 374 kts 179°
2026-05-07 21:19 19.56699 -80.82723 40986 ft 374 kts 179°
2026-05-07 21:20 19.51531 -80.82474 40982 ft 374 kts 179°
2026-05-07 21:20 19.46332 -80.82225 40982 ft 374 kts 179°
2026-05-07 21:21 19.41131 -80.81976 40978 ft 374 kts 179°
2026-05-07 21:21 19.35930 -80.81728 40978 ft 374 kts 179°
2026-05-07 21:22 19.30731 -80.81479 40980 ft 374 kts 179°
2026-05-07 21:22 19.25530 -80.81230 40980 ft 374 kts 179°
2026-05-07 21:23 19.20328 -80.80983 40979 ft 374 kts 179°
2026-05-07 21:23 19.15131 -80.80735 40973 ft 374 kts 179°
2026-05-07 21:24 19.09937 -80.80488 40973 ft 374 kts 179°
2026-05-07 21:24 19.04741 -80.80241 40973 ft 374 kts 179°
2026-05-07 21:25 18.99548 -80.79994 40979 ft 374 kts 179°
2026-05-07 21:25 18.94349 -80.79747 40978 ft 374 kts 179°
2026-05-07 21:26 18.89151 -80.79500 40975 ft 374 kts 179°
2026-05-07 21:26 18.83964 -80.79254 40971 ft 373 kts 179°
2026-05-07 21:27 18.78814 -80.79010 40970 ft 373 kts 179°
2026-05-07 21:27 18.73629 -80.78764 40969 ft 373 kts 179°
2026-05-07 21:28 18.68446 -80.78519 40969 ft 373 kts 179°
2026-05-07 21:28 18.63259 -80.78273 40971 ft 373 kts 179°
2026-05-07 21:29 18.58075 -80.78028 40969 ft 373 kts 179°
2026-05-07 21:29 18.52890 -80.77783 40966 ft 373 kts 179°
2026-05-07 21:30 18.47714 -80.77539 40967 ft 372 kts 179°
2026-05-07 21:30 18.42540 -80.77294 40970 ft 372 kts 179°
2026-05-07 21:31 18.37364 -80.77050 40975 ft 372 kts 179°
2026-05-07 21:31 18.32192 -80.76806 40977 ft 372 kts 179°
2026-05-07 21:32 18.27016 -80.76562 40975 ft 372 kts 179°
2026-05-07 21:32 18.21839 -80.76319 40973 ft 372 kts 179°
2026-05-07 21:33 18.16670 -80.76075 40968 ft 371 kts 179°
2026-05-07 21:33 18.11505 -80.75832 40963 ft 372 kts 179°
2026-05-07 21:34 18.06373 -80.75591 40966 ft 372 kts 179°
2026-05-07 21:34 18.01208 -80.75348 40962 ft 372 kts 179°
2026-05-07 21:35 17.96041 -80.75106 40966 ft 372 kts 179°
2026-05-07 21:35 17.90873 -80.74863 40956 ft 372 kts 179°
2026-05-07 21:36 17.85708 -80.74621 40960 ft 372 kts 179°
2026-05-07 21:36 17.80541 -80.74379 40960 ft 372 kts 179°
2026-05-07 21:37 17.75376 -80.74137 40962 ft 372 kts 179°
2026-05-07 21:37 17.70207 -80.73894 40959 ft 372 kts 179°
2026-05-07 21:38 17.65038 -80.73653 40959 ft 372 kts 179°
2026-05-07 21:38 17.59874 -80.73411 40956 ft 372 kts 179°
2026-05-07 21:39 17.54706 -80.73169 40957 ft 372 kts 179°
2026-05-07 21:39 17.49542 -80.72928 40965 ft 371 kts 179°
2026-05-07 21:40 17.44380 -80.72687 40958 ft 371 kts 179°
2026-05-07 21:40 17.39215 -80.72446 40953 ft 371 kts 179°
2026-05-07 21:41 17.34055 -80.72205 40951 ft 371 kts 179°
2026-05-07 21:41 17.28926 -80.71965 40957 ft 371 kts 179°
2026-05-07 21:42 17.23763 -80.71725 40950 ft 371 kts 179°
2026-05-07 21:42 17.18603 -80.71484 40955 ft 371 kts 179°
2026-05-07 21:43 17.13442 -80.71244 40955 ft 371 kts 179°
2026-05-07 21:43 17.08286 -80.71004 40956 ft 371 kts 179°
2026-05-07 21:44 17.03126 -80.70764 40947 ft 371 kts 179°
2026-05-07 21:44 16.97966 -80.70524 40951 ft 371 kts 179°
2026-05-07 21:45 16.92806 -80.70285 40958 ft 371 kts 179°
2026-05-07 21:45 16.87649 -80.70045 40943 ft 371 kts 179°
2026-05-07 21:46 16.82492 -80.69806 40942 ft 371 kts 178°
2026-05-07 21:46 16.77336 -80.69567 40943 ft 371 kts 178°
2026-05-07 21:47 16.72179 -80.69328 40944 ft 371 kts 178°
2026-05-07 21:47 16.67026 -80.69089 40942 ft 371 kts 178°
2026-05-07 21:48 16.61869 -80.68850 40946 ft 371 kts 178°
2026-05-07 21:48 16.56712 -80.68611 40941 ft 371 kts 178°
2026-05-07 21:49 16.51558 -80.68373 40943 ft 371 kts 178°
2026-05-07 21:49 16.46400 -80.68134 40949 ft 371 kts 178°
2026-05-07 21:50 16.41242 -80.67896 40944 ft 371 kts 178°
2026-05-07 21:50 16.36089 -80.67658 40937 ft 371 kts 178°
2026-05-07 21:51 16.30934 -80.67420 40937 ft 371 kts 178°
2026-05-07 21:51 16.25817 -80.67184 40940 ft 371 kts 178°
2026-05-07 21:52 16.20662 -80.66946 40949 ft 371 kts 178°
2026-05-07 21:52 16.15505 -80.66709 40936 ft 371 kts 178°
2026-05-07 21:53 16.10356 -80.66471 40941 ft 370 kts 178°
2026-05-07 21:53 16.05203 -80.66234 40942 ft 370 kts 178°
2026-05-07 21:54 16.00059 -80.65997 40935 ft 371 kts 178°
2026-05-07 21:54 15.94905 -80.65760 40935 ft 370 kts 178°
2026-05-07 21:55 15.89760 -80.65524 40931 ft 371 kts 178°
2026-05-07 21:55 15.84607 -80.65287 40939 ft 370 kts 178°
2026-05-07 21:56 15.79458 -80.65051 40931 ft 371 kts 178°
2026-05-07 21:56 15.74309 -80.64814 40928 ft 370 kts 178°
2026-05-07 21:57 15.69161 -80.64578 40931 ft 371 kts 178°
2026-05-07 21:57 15.64011 -80.64342 40935 ft 370 kts 178°
2026-05-07 21:58 15.58863 -80.64106 40928 ft 371 kts 178°
2026-05-07 21:58 15.53714 -80.63870 40932 ft 370 kts 178°
2026-05-07 21:59 15.48564 -80.63635 40924 ft 371 kts 178°
2026-05-07 21:59 15.43415 -80.63399 40938 ft 370 kts 178°
2026-05-07 22:00 15.38264 -80.63163 40932 ft 371 kts 178°
2026-05-07 22:00 15.33123 -80.62928 40928 ft 370 kts 178°
2026-05-07 22:01 15.27970 -80.62693 40930 ft 370 kts 178°
2026-05-07 22:01 15.22830 -80.62458 40926 ft 370 kts 178°
2026-05-07 22:02 15.17677 -80.62223 40930 ft 370 kts 178°
2026-05-07 22:02 15.12536 -80.61988 40940 ft 370 kts 178°
2026-05-07 22:03 15.07389 -80.61754 40924 ft 370 kts 178°
2026-05-07 22:03 15.02245 -80.61519 40928 ft 371 kts 178°
2026-05-07 22:04 14.97120 -80.60949 40932 ft 371 kts 170°
2026-05-07 22:04 14.92043 -80.60034 40927 ft 371 kts 171°
2026-05-07 22:05 14.86975 -80.59182 40925 ft 371 kts 171°
2026-05-07 22:05 14.81897 -80.58300 40925 ft 370 kts 171°
2026-05-07 22:06 14.76801 -80.57428 40925 ft 371 kts 171°
2026-05-07 22:06 14.71718 -80.56553 40928 ft 370 kts 171°
2026-05-07 22:07 14.66627 -80.55680 40925 ft 372 kts 171°
2026-05-07 22:07 14.62362 -80.54948 40925 ft 370 kts 171°
2026-05-07 22:08 14.57315 -80.54082 40932 ft 371 kts 171°
2026-05-07 22:08 14.52216 -80.53208 40927 ft 371 kts 171°
2026-05-07 22:09 14.47138 -80.52338 40934 ft 371 kts 171°
2026-05-07 22:09 14.42037 -80.51464 40923 ft 371 kts 171°
2026-05-07 22:10 14.36961 -80.50595 40922 ft 370 kts 171°
2026-05-07 22:10 14.31863 -80.49723 40930 ft 372 kts 171°
2026-05-07 22:11 14.26776 -80.48852 40929 ft 369 kts 171°
2026-05-07 22:11 14.21689 -80.47983 40923 ft 372 kts 171°
2026-05-07 22:12 14.16590 -80.47111 40925 ft 370 kts 171°
2026-05-07 22:12 14.11510 -80.46243 40930 ft 371 kts 171°
2026-05-07 22:13 14.06409 -80.45372 40923 ft 371 kts 171°
2026-05-07 22:13 14.01336 -80.44507 40923 ft 370 kts 171°
2026-05-07 22:14 13.96244 -80.43638 40917 ft 370 kts 171°
2026-05-07 22:14 13.91205 -80.42779 40917 ft 369 kts 171°
2026-05-07 22:15 13.86121 -80.41912 40928 ft 372 kts 171°
2026-05-07 22:15 13.81036 -80.41046 40926 ft 369 kts 171°
2026-05-07 22:16 13.75962 -80.40182 40917 ft 371 kts 171°
2026-05-07 22:16 13.70869 -80.39315 40915 ft 370 kts 171°
2026-05-07 22:17 13.65805 -80.38453 40925 ft 370 kts 171°
2026-05-07 22:17 13.60720 -80.37588 40918 ft 370 kts 171°
2026-05-07 22:18 13.53116 -80.36296 40918 ft 370 kts 171°
2026-05-07 22:19 13.48025 -80.35431 40918 ft 370 kts 171°
2026-05-07 22:19 13.42956 -80.34570 40912 ft 370 kts 171°
2026-05-07 22:20 13.37872 -80.33708 40912 ft 370 kts 171°
2026-05-07 22:20 13.32802 -80.32847 40917 ft 368 kts 171°
2026-05-07 22:21 13.27721 -80.31986 40912 ft 371 kts 171°
2026-05-07 22:21 13.22666 -80.31128 40912 ft 369 kts 171°
2026-05-07 22:22 13.17593 -80.30269 40912 ft 371 kts 171°
2026-05-07 22:22 13.12492 -80.29405 40910 ft 370 kts 171°
2026-05-07 22:23 13.07416 -80.28546 40916 ft 370 kts 171°
2026-05-07 22:23 13.02320 -80.27683 40912 ft 371 kts 171°
2026-05-07 22:24 12.97244 -80.26824 40923 ft 369 kts 171°
2026-05-07 22:24 12.92156 -80.25965 40909 ft 372 kts 171°
2026-05-07 22:25 12.87059 -80.25102 40911 ft 370 kts 171°
2026-05-07 22:25 12.81980 -80.24245 40920 ft 371 kts 171°
2026-05-07 22:26 12.76873 -80.23382 40907 ft 371 kts 171°
2026-05-07 22:26 12.71789 -80.22524 40904 ft 371 kts 171°
2026-05-07 22:27 12.66686 -80.21663 40904 ft 372 kts 171°
2026-05-07 22:27 12.61598 -80.20804 40904 ft 369 kts 171°
2026-05-07 22:28 12.56512 -80.19947 40898 ft 371 kts 171°
2026-05-07 22:28 12.51416 -80.19088 40898 ft 370 kts 171°
2026-05-07 22:29 12.46337 -80.18233 40897 ft 371 kts 171°
2026-05-07 22:29 12.41233 -80.17373 40895 ft 371 kts 171°
2026-05-07 22:30 12.36148 -80.16517 40900 ft 370 kts 171°
2026-05-07 22:30 12.31083 -80.15665 40900 ft 372 kts 171°
2026-05-07 22:31 12.25992 -80.14808 40898 ft 369 kts 171°
2026-05-07 22:31 12.20907 -80.13953 40897 ft 371 kts 171°
2026-05-07 22:32 12.15802 -80.13095 40903 ft 371 kts 171°
2026-05-07 22:32 12.10719 -80.12241 40904 ft 371 kts 171°
2026-05-07 22:33 12.05609 -80.11383 40893 ft 372 kts 171°
2026-05-07 22:33 12.00518 -80.10528 40888 ft 370 kts 171°
2026-05-07 22:34 11.95421 -80.09673 40888 ft 373 kts 171°
2026-05-07 22:34 11.90312 -80.08816 40888 ft 370 kts 171°
2026-05-07 22:35 11.85230 -80.07963 40885 ft 371 kts 171°
2026-05-07 22:35 11.80141 -80.07110 40885 ft 370 kts 171°
2026-05-07 22:36 11.75069 -80.06260 40885 ft 369 kts 171°
2026-05-07 22:36 11.69988 -80.05410 40885 ft 371 kts 171°
2026-05-07 22:37 11.64905 -80.04558 40888 ft 370 kts 171°
2026-05-07 22:37 11.59833 -80.03709 40887 ft 370 kts 171°
2026-05-07 22:38 11.54742 -80.02857 40885 ft 370 kts 171°
2026-05-07 22:38 11.49673 -80.02010 40893 ft 369 kts 171°
2026-05-07 22:39 11.44607 -80.01163 40881 ft 369 kts 171°
2026-05-07 22:39 11.39548 -80.00317 40889 ft 368 kts 171°
2026-05-07 22:40 11.34530 -79.99479 40880 ft 369 kts 171°
2026-05-07 22:40 11.29466 -79.98633 40881 ft 368 kts 171°
2026-05-07 22:41 11.24414 -79.97789 40887 ft 368 kts 171°
2026-05-07 22:41 11.19351 -79.96945 40890 ft 369 kts 171°
2026-05-07 22:42 11.14293 -79.96101 40878 ft 368 kts 171°
2026-05-07 22:42 11.09230 -79.95257 40874 ft 369 kts 172°
2026-05-07 22:43 11.04161 -79.94411 40874 ft 369 kts 172°
2026-05-07 22:43 10.99090 -79.93566 40874 ft 369 kts 172°
2026-05-07 22:44 10.94021 -79.92722 40875 ft 369 kts 172°
2026-05-07 22:44 10.88950 -79.91877 40875 ft 369 kts 172°
2026-05-07 22:45 10.83882 -79.91033 40872 ft 369 kts 172°
2026-05-07 22:45 10.78810 -79.90189 40872 ft 369 kts 172°
2026-05-07 22:46 10.73738 -79.89345 40872 ft 369 kts 172°
2026-05-07 22:46 10.71214 -79.88925 40730 ft 365 kts 172°
2026-05-07 22:46 10.68726 -79.88512 40293 ft 360 kts 172°
2026-05-07 22:46 10.66260 -79.88101 39825 ft 358 kts 171°
2026-05-07 22:47 10.63809 -79.87698 39353 ft 355 kts 171°
2026-05-07 22:47 10.61377 -79.87290 38889 ft 353 kts 171°
2026-05-07 22:47 10.58959 -79.86889 38402 ft 351 kts 169°
2026-05-07 22:47 10.56565 -79.86484 37918 ft 347 kts 170°
2026-05-07 22:48 10.54192 -79.86096 37461 ft 344 kts 170°
2026-05-07 22:48 10.51845 -79.85712 37009 ft 340 kts 169°
2026-05-07 22:48 10.49526 -79.85320 36563 ft 336 kts 169°
2026-05-07 22:48 10.47230 -79.84934 36124 ft 333 kts 169°
2026-05-07 22:49 10.44954 -79.84563 35688 ft 330 kts 168°
2026-05-07 22:49 10.42700 -79.84191 35254 ft 327 kts 168°
2026-05-07 22:49 10.40477 -79.83764 34823 ft 324 kts 166°
2026-05-07 22:49 10.38276 -79.83323 34397 ft 322 kts 167°
2026-05-07 22:50 10.36051 -79.82895 33966 ft 337 kts 167°
2026-05-07 22:50 10.33648 -79.82418 33468 ft 366 kts 167°
2026-05-07 22:50 10.31101 -79.81910 32969 ft 390 kts 167°
2026-05-07 22:50 10.28340 -79.81365 32434 ft 407 kts 167°
2026-05-07 22:51 10.25513 -79.80810 31882 ft 419 kts 167°
2026-05-07 22:51 10.22633 -79.80241 31325 ft 423 kts 167°
2026-05-07 22:51 10.19791 -79.79702 30774 ft 407 kts 167°
2026-05-07 22:51 10.17047 -79.79227 30233 ft 393 kts 168°
2026-05-07 22:52 10.14390 -79.78778 29659 ft 382 kts 167°
2026-05-07 22:52 10.11842 -79.78328 29049 ft 372 kts 167°
2026-05-07 22:52 10.09324 -79.77875 28448 ft 363 kts 167°
2026-05-07 22:52 10.06861 -79.77442 27864 ft 356 kts 167°
2026-05-07 22:53 10.04442 -79.77020 27299 ft 349 kts 167°
2026-05-07 22:53 10.02008 -79.76588 26749 ft 364 kts 166°
2026-05-07 22:53 9.99458 -79.76134 26225 ft 381 kts 167°
2026-05-07 22:53 9.96779 -79.75665 25718 ft 399 kts 167°
2026-05-07 22:54 9.94029 -79.75187 25234 ft 400 kts 167°
2026-05-07 22:54 9.91297 -79.74709 24762 ft 397 kts 167°
2026-05-07 22:54 9.88589 -79.74230 24288 ft 394 kts 166°
2026-05-07 22:54 9.85893 -79.73755 23747 ft 391 kts 166°
2026-05-07 22:55 9.83220 -79.73287 23166 ft 388 kts 166°
2026-05-07 22:55 9.80571 -79.72822 22519 ft 384 kts 166°
2026-05-07 22:55 9.77957 -79.72363 21896 ft 379 kts 166°
2026-05-07 22:55 9.75382 -79.71911 21285 ft 373 kts 166°
2026-05-07 22:56 9.72837 -79.71463 20693 ft 369 kts 167°
2026-05-07 22:56 9.70323 -79.71022 20174 ft 365 kts 167°
2026-05-07 22:56 9.68674 -79.70733 19836 ft 362 kts 167°
2026-05-07 22:56 9.66204 -79.70299 19333 ft 358 kts 167°
2026-05-07 22:57 9.63762 -79.69870 18838 ft 354 kts 167°
2026-05-07 22:57 9.61344 -79.69446 18352 ft 351 kts 167°
2026-05-07 22:57 9.58952 -79.69026 17822 ft 347 kts 167°
2026-05-07 22:57 9.56584 -79.68611 17265 ft 344 kts 167°
2026-05-07 22:58 9.54237 -79.68199 16720 ft 341 kts 167°
2026-05-07 22:58 9.51907 -79.67791 16181 ft 338 kts 167°
2026-05-07 22:58 9.49596 -79.67386 15652 ft 335 kts 166°
2026-05-07 22:58 9.47307 -79.66984 15134 ft 332 kts 166°
2026-05-07 22:59 9.45037 -79.66587 14625 ft 330 kts 166°
2026-05-07 22:59 9.42783 -79.66191 14122 ft 328 kts 166°
2026-05-07 22:59 9.40545 -79.65801 13627 ft 326 kts 166°
2026-05-07 22:59 9.38323 -79.65409 13070 ft 323 kts 166°
2026-05-07 23:00 9.36117 -79.65022 12545 ft 320 kts 166°
2026-05-07 23:00 9.33931 -79.64640 12080 ft 317 kts 167°
2026-05-07 23:00 9.31758 -79.64261 11625 ft 317 kts 167°
2026-05-07 23:00 9.29590 -79.63884 11184 ft 315 kts 167°
2026-05-07 23:01 9.27437 -79.63500 10744 ft 314 kts 167°
2026-05-07 23:01 9.25293 -79.63120 10305 ft 312 kts 168°
2026-05-07 23:01 9.23163 -79.62751 9861 ft 309 kts 168°
2026-05-07 23:01 9.21045 -79.62383 9396 ft 308 kts 168°
2026-05-07 23:02 9.18942 -79.62015 8920 ft 306 kts 169°
2026-05-07 23:02 9.16878 -79.61653 8460 ft 305 kts 169°
2026-05-07 23:02 9.14791 -79.61288 8001 ft 304 kts 169°
2026-05-07 23:02 9.12714 -79.60927 7563 ft 302 kts 169°
2026-05-07 23:03 9.10680 -79.60570 7141 ft 289 kts 169°
2026-05-07 23:03 9.08742 -79.60247 6724 ft 277 kts 172°
2026-05-07 23:03 9.06847 -79.60139 6312 ft 269 kts 178°
2026-05-07 23:03 9.05000 -79.60134 5874 ft 262 kts 179°
2026-05-07 23:04 9.03196 -79.60138 5437 ft 257 kts 179°
2026-05-07 23:04 9.01427 -79.60089 5006 ft 252 kts 173°
2026-05-07 23:04 8.99710 -79.59850 4664 ft 248 kts 170°
2026-05-07 23:04 8.98020 -79.59564 4320 ft 244 kts 169°
2026-05-07 23:05 8.96368 -79.59281 3981 ft 238 kts 169°
2026-05-07 23:05 8.94750 -79.59000 3615 ft 234 kts 170°
2026-05-07 23:05 8.93130 -79.58863 3283 ft 235 kts 180°
2026-05-07 23:05 8.91501 -79.58931 2951 ft 232 kts 184°
2026-05-07 23:06 8.89898 -79.59025 2612 ft 229 kts 184°
2026-05-07 23:06 8.88318 -79.59113 2274 ft 226 kts 184°
2026-05-07 23:06 8.86805 -79.59191 1939 ft 214 kts 184°
2026-05-07 23:06 8.85415 -79.59248 1884 ft 189 kts 184°
2026-05-07 23:07 8.84133 -79.59285 1880 ft 181 kts 183°
2026-05-07 23:07 8.82889 -79.59225 1867 ft 180 kts 163°
2026-05-07 23:07 8.81924 -79.58473 1862 ft 178 kts 117°
2026-05-07 23:07 8.81735 -79.57288 1862 ft 171 kts 72°
2026-05-07 23:08 8.82326 -79.56297 1865 ft 163 kts 41°
2026-05-07 23:08 8.83275 -79.55733 1864 ft 157 kts 12°
2026-05-07 23:08 8.84351 -79.55728 1864 ft 156 kts 345°
2026-05-07 23:08 8.85394 -79.56039 1872 ft 156 kts 343°
2026-05-07 23:09 8.86449 -79.56305 1878 ft 156 kts 346°
2026-05-07 23:09 8.87517 -79.56519 1786 ft 160 kts 354°
2026-05-07 23:09 8.88625 -79.56395 1531 ft 159 kts
2026-05-07 23:09 8.89710 -79.56227 1302 ft 158 kts
2026-05-07 23:10 8.90766 -79.56116 1085 ft 142 kts
2026-05-07 23:10 8.91673 -79.56036 907 ft 123 kts
2026-05-07 23:10 8.92477 -79.55968 737 ft 110 kts
2026-05-07 23:10 8.93211 -79.55921 618 ft 103 kts 359°
2026-05-07 23:11 8.93947 -79.55851 527 ft 108 kts
2026-05-07 23:11 8.94711 -79.55791 480 ft 113 kts
2026-05-07 23:11 8.95509 -79.55714 290 ft 115 kts 359°
2026-05-07 23:11 8.96294 -79.55649 119 ft 112 kts
2026-05-07 23:12 8.97024 -79.55588 27 ft 82 kts
2026-05-07 23:12 8.97304 -79.55562 29 ft 10 kts
2026-05-07 23:12 8.97343 -79.55604 29 ft 9 kts 288°
2026-05-07 23:12 8.97364 -79.55660 29 ft 2 kts 290°
2026-05-07 23:13 8.97365 -79.55664 29 ft 1 kts 290°
2026-05-07 23:13 8.97376 -79.55692 29 ft 7 kts 290°
2026-05-07 23:13 8.97345 -79.55735 29 ft 10 kts 197°
2026-05-07 23:13 8.97279 -79.55764 29 ft 11 kts 214°
2026-05-07 23:14 8.97218 -79.55807 30 ft 11 kts 214°
2026-05-07 23:14 8.97156 -79.55847 31 ft 9 kts 194°
2026-05-07 23:14 8.97135 -79.55808 31 ft 0 kts 98°